DW1345 Weather Reports


Display with metric or nautical units.
time (UTC)temp
F
wind
direction
speed
MPH
gust
MPH
rain 1hr
in
rain 24hr
in
rain mn
in
humidity
%
barometer
mb
20260902191546 51 230 0.0 0.0 0.00 0.00 0.00 88 1000.6
20260902190045 51 230 0.0 0.0 0.00 0.00 0.00 86 1000.5
20260902184545 52 230 0.0 0.0 0.00 0.00 0.00 85 1000.5
20260902183045 54 230 0.0 0.0 0.00 0.00 0.00 83 1000.6
20260902181544 55 230 0.0 0.0 0.00 0.00 0.00 81 1000.6
20260902180043 56 230 0.0 0.0 0.00 0.00 0.00 80 1000.6
20260902174549 57 230 0.0 0.0 0.00 0.00 0.00 79 1000.5
20260902173042 58 232 0.0 0.0 0.00 0.00 0.00 79 1000.7
20260902171544 59 233 0.0 0.0 0.00 0.00 0.00 78 1000.6
20260902170042 59 233 0.0 0.0 0.00 0.00 0.00 78 1000.7
20260902164547 59 233 1.0 0.0 0.00 0.00 0.00 75 1000.5
20260902163042 61 232 1.0 0.0 0.00 0.00 0.00 71 1000.6
20260902161540 62 227 0.0 0.0 0.00 0.00 0.00 66 1000.5
20260902160040 61 228 0.0 0.0 0.00 0.00 0.00 69 1000.6
20260902154540 61 228 0.0 0.0 0.00 0.00 0.00 69 1000.5
20260902153040 61 228 0.0 0.0 0.00 0.00 0.00 70 1000.5
20260902151537 61 228 0.0 0.0 0.00 0.00 0.00 71 1000.7
20260902150037 61 227 1.0 0.0 0.00 0.00 0.00 70 1000.8
20260902144536 63 221 2.0 0.0 0.00 0.00 0.00 68 1000.7
20260902143039 63 234 1.0 0.0 0.00 0.00 0.00 68 1000.7
20260902141537 64 195 1.0 0.0 0.00 0.00 0.00 68 1000.7
20260902140030 62 188 1.0 0.0 0.00 0.00 0.00 70 1000.7
20260902134532 62 223 1.0 0.0 0.00 0.00 0.00 71 1000.9
20260902133040 62 320 0.0 0.0 0.00 0.00 0.00 66 1000.9
20260902131524 61 313 0.0 0.0 0.00 0.00 0.00 66 1000.9
20260902130027 61 274 1.0 0.0 0.00 0.00 0.00 68 1001.0
20260902124521 60 302 1.0 0.0 0.00 0.00 0.00 67 1001.0
20260902123020 61 355 2.0 0.0 0.00 0.00 0.00 67 1001.2
20260902121517 61 76 1.0 0.0 0.00 0.00 0.00 68 1001.1
20260902120014 60 117 3.0 0.0 0.00 0.00 0.00 67 1001.2
20260902114512 60 96 3.0 0.0 0.00 0.00 0.00 67 1001.2
20260902113010 60 90 2.0 0.0 0.00 0.00 0.00 70 1001.4
20260902111507 60 94 3.0 0.0 0.00 0.00 0.00 69 1001.5
20260902110013 59 103 4.0 0.0 0.00 0.00 0.00 70 1001.7
20260902104504 59 91 3.0 0.0 0.00 0.00 0.00 71 1001.6
20260902103106 59 126 4.0 0.0 0.00 0.00 0.00 73 1001.8
20260902101557 58 63 3.0 0.0 0.00 0.00 0.00 73 1002.1
20260902100055 58 63 4.0 0.0 0.00 0.00 0.00 72 1001.9
20260902094551 57 80 5.0 0.0 0.00 0.00 0.00 74 1002.0
20260902093048 56 74 4.0 0.0 0.00 0.00 0.00 76 1002.1
20260902091545 56 79 4.0 0.0 0.00 0.00 0.00 77 1002.2
20260902090043 55 66 5.0 0.0 0.00 0.00 0.00 80 1002.4
20260902084542 55 79 4.0 0.0 0.00 0.00 0.00 79 1002.4
20260902083052 56 116 4.0 0.0 0.00 0.00 0.00 79 1002.5
20260902081541 55 76 4.0 0.0 0.00 0.00 0.00 83 1002.6
20260902080036 54 76 4.0 0.0 0.00 0.00 0.00 85 1002.4
20260902074535 54 82 4.0 0.0 0.00 0.00 0.00 85 1002.4
20260902073037 53 82 4.0 0.0 0.00 0.00 0.00 88 1002.5
20260902071528 52 60 2.0 0.0 0.00 0.00 0.00 91 1002.5
20260902070025 51 49 2.0 0.0 0.00 0.00 0.00 94 1002.7
20260902064522 50 69 2.0 0.0 0.00 0.00 0.00 95 1002.8
20260902063018 48 165 0.0 0.0 0.00 0.00 0.00 96 1002.9
20260902061533 48 165 0.0 0.0 0.00 0.00 0.00 95 1003.0
20260902060017 47 166 0.0 0.0 0.00 0.00 0.00 96 1003.1
20260902054521 46 166 0.0 0.0 0.00 0.00 0.00 96 1003.0
20260902053014 45 166 0.0 0.0 0.00 0.00 0.00 96 1003.2
20260902051513 45 166 0.0 0.0 0.00 0.00 0.00 95 1003.3
20260902050015 45 166 0.0 0.0 0.00 0.00 0.00 95 1003.2
20260902044522 45 166 0.0 0.0 0.00 0.00 0.00 96 1003.3
20260902043011 45 166 0.0 0.0 0.00 0.00 0.00 96 1003.5
20260902041510 44 165 0.0 0.0 0.00 0.00 0.00 96 1003.6
20260902040009 43 219 0.0 0.0 0.00 0.00 0.00 95 1003.5
20260902034508 43 219 0.0 0.0 0.00 0.00 0.00 95 1003.7
20260902033007 43 221 0.0 0.0 0.00 0.00 0.00 95 1003.7
20260902031504 43 225 0.0 0.0 0.00 0.00 0.00 95 1003.9
20260902030003 42 227 0.0 0.0 0.00 0.00 0.00 95 1004.1
20260902024502 42 228 0.0 0.0 0.00 0.00 0.00 95 1004.0
20260902023110 42 228 0.0 0.0 0.00 0.00 0.00 95 1004.3
20260902021557 42 228 0.0 0.0 0.00 0.00 0.00 95 1004.2
20260902020055 42 228 0.0 0.0 0.00 0.00 0.00 94 1004.3
20260902014554 43 228 0.0 0.0 0.00 0.00 0.00 95 1004.5
20260902013053 43 228 0.0 0.0 0.00 0.00 0.00 95 1004.6
20260902011612 43 228 0.0 0.0 0.00 0.00 0.00 94 1004.7
20260902010049 43 228 0.0 0.0 0.00 0.00 0.00 94 1004.8
20260902004549 43 228 0.0 0.0 0.00 0.00 0.00 94 1004.8
20260902003046 43 228 0.0 0.0 0.00 0.00 0.00 94 1004.8
20260902001544 43 228 0.0 0.0 0.00 0.00 0.00 94 1004.8
20260902000043 44 228 0.0 0.0 0.00 0.00 0.00 94 1004.9
20260901234546 44 230 0.0 0.0 0.00 0.00 0.00 93 1005.0
20260901233038 44 230 0.0 0.0 0.00 0.00 0.00 93 1005.1
20260901231541 45 230 0.0 0.0 0.00 0.00 0.00 93 1005.2
20260901230032 45 230 0.0 0.0 0.00 0.00 0.00 93 1005.3
20260901224530 46 230 0.0 0.0 0.00 0.00 0.00 92 1005.3
20260901223027 47 230 0.0 0.0 0.00 0.00 0.00 92 1005.2
20260901221555 47 230 0.0 0.0 0.00 0.00 0.00 92 1005.4
20260901220036 48 230 0.0 0.0 0.00 0.00 0.00 92 1005.6
20260901214519 49 232 0.0 0.0 0.00 0.00 0.28 92 1005.6
20260901213022 49 232 0.0 0.0 0.00 0.00 0.28 91 1005.7
20260901211516 50 232 0.0 0.0 0.00 0.00 0.28 91 1005.8
20260901210011 51 232 0.0 0.0 0.00 0.00 0.28 91 1005.9
20260901204516 51 232 0.0 0.0 0.00 0.00 0.28 92 1005.9
20260901203010 51 232 0.0 0.0 0.00 0.00 0.28 91 1005.8
20260901201508 51 232 0.0 0.0 0.00 0.00 0.28 91 1005.8
20260901200022 52 232 0.0 0.0 0.00 0.00 0.28 90 1005.9
20260901194508 52 231 0.0 0.0 0.00 0.00 0.28 90 1006.0
20260901193008 52 231 0.0 0.0 0.00 0.00 0.28 89 1006.1